Weather History for KTEW - May, 2013

Change the Weather History Date:

Saturday, May 18, 2013

  Actual Average (KLAN) Record (KLAN)
Temperature  
Mean Temperature 68 °F 58 °F  
Max Temperature 81 °F 69 °F 89 °F (1911)
Min Temperature 54 °F 47 °F 23 °F (1868)
Degree Days  
Heating Degree Days 0 8  
Month to date heating degree days 180  
Since 1 July heating degree days 6578  
Cooling Degree Days 2 1  
Month to date cooling degree days 12  
Year to date cooling degree days 19  
Growing Degree Days 18 (Base 50)    
Moisture  
Dew Point 44 °F    
Average Humidity 44    
Maximum Humidity 65    
Minimum Humidity 28    
Precipitation  
Precipitation 0.00 in 0.11 in 3.22 in (2000)
Month to date precipitation 1.89  
Year to date precipitation 10.10  
Snow  
Snow 0.00 in 0.00 in 0.40 in (1915)
Month to date snowfall 0.0  
Since 1 July snowfall 51.1  
Snow Depth -    
Sea Level Pressure  
Sea Level Pressure 30.09 in    
Wind  
Wind Speed 6 mph (ESE)    
Max Wind Speed 14 mph    
Max Gust Speed 21 mph    
Visibility 10 miles    
Events      
T = Trace of Precipitation, MM = Missing Value Source: NWS Daily Summary

Daily Weather History Graph

Daily Weather History Graph

Search for Another Location

Airport or City:

Trip Planner

Search our weather history database for the weather conditions in past years. The results will help you decide how hot, cold, wet, or windy it might be!

Date:

Astronomy

May. 18, 2013 Rise Set
Actual Time 6:12 AM EDT 8:56 PM EDT
Civil Twilight 5:39 AM EDT 9:29 PM EDT
Nautical Twilight 4:58 AM EDT 10:10 PM EDT
Astronomical Twilight 4:11 AM EDT 10:57 PM EDT
Moon 1:50 PM EDT (5/18) 2:13 AM EDT (5/18)
Length of Visible Light 15h 49m
Length of Day
14h 43m
First Quarter, 55% of the Moon is Illuminated
May 18
First Quarter
May 25
Full
May 31
Last Quarter
Jun 8
New
Jun 16
First Quarter

Hourly Weather History & Observations

Time (EDT) Temp. Dew Point Humidity Pressure Visibility Wind Dir Wind Speed Gust Speed Precip Events Conditions
12:14 AM 63.1 °F 41.4 °F 45% 30.14 in 10.0 mi ESE 6.9 mph - N/A   Overcast
12:34 AM 62.6 °F 41.9 °F 47% 30.14 in 10.0 mi Calm Calm - N/A   Overcast
12:54 AM 62.1 °F 41.9 °F 48% 30.14 in 10.0 mi SE 6.9 mph - N/A   Overcast
1:13 AM 61.7 °F 42.4 °F 49% 30.14 in 10.0 mi SE 4.6 mph - N/A   Overcast
1:34 AM 61.3 °F 40.6 °F 47% 30.14 in 10.0 mi East 5.8 mph - N/A   Overcast
1:53 AM 60.8 °F 41.0 °F 48% 30.13 in 10.0 mi East 4.6 mph - N/A   Overcast
2:14 AM 60.1 °F 40.8 °F 49% 30.13 in 10.0 mi ESE 6.9 mph - N/A   Overcast
2:34 AM 59.4 °F 40.1 °F 49% 30.12 in 10.0 mi ESE 3.5 mph - N/A   Overcast
2:53 AM 58.6 °F 39.2 °F 48% 30.12 in 10.0 mi East 4.6 mph - N/A   Mostly Cloudy
3:14 AM 58.3 °F 40.1 °F 51% 30.13 in 10.0 mi East 3.5 mph - N/A   Mostly Cloudy
3:34 AM 57.9 °F 41.0 °F 53% 30.12 in 10.0 mi East 4.6 mph - N/A   Overcast
3:53 AM 57.4 °F 41.2 °F 55% 30.12 in 10.0 mi East 4.6 mph - N/A   Overcast
4:14 AM 57.2 °F 41.5 °F 56% 30.12 in 10.0 mi East 3.5 mph - N/A   Overcast
4:34 AM 56.5 °F 42.3 °F 59% 30.12 in 10.0 mi ENE 3.5 mph - N/A   Mostly Cloudy
4:53 AM 55.4 °F 42.4 °F 62% 30.12 in 10.0 mi ENE 4.6 mph - N/A   Scattered Clouds
5:14 AM 54.7 °F 42.3 °F 63% 30.12 in 10.0 mi East 3.5 mph - N/A   Scattered Clouds
5:33 AM 54.3 °F 42.8 °F 65% 30.13 in 10.0 mi Calm Calm - N/A   Mostly Cloudy
5:54 AM 55.4 °F 43.0 °F 63% 30.14 in 10.0 mi East 3.5 mph - N/A   Overcast
6:14 AM 55.4 °F 43.7 °F 65% 30.14 in 10.0 mi NE 3.5 mph - N/A   Overcast
6:33 AM 55.4 °F 43.3 °F 64% 30.15 in 10.0 mi NE 3.5 mph - N/A   Overcast
6:54 AM 55.8 °F 43.2 °F 63% 30.14 in 10.0 mi ENE 3.5 mph - N/A   Overcast
7:14 AM 55.6 °F 43.3 °F 63% 30.14 in 10.0 mi East 3.5 mph - N/A   Mostly Cloudy
7:33 AM 56.3 °F 44.2 °F 64% 30.14 in 10.0 mi Calm Calm - N/A   Mostly Cloudy
7:54 AM 57.2 °F 44.2 °F 62% 30.14 in 10.0 mi ENE 3.5 mph - N/A   Overcast
8:14 AM 58.1 °F 44.1 °F 60% 30.14 in 10.0 mi ENE 4.6 mph - N/A   Scattered Clouds
8:33 AM 58.5 °F 44.8 °F 60% 30.14 in 10.0 mi ENE 4.6 mph - N/A   Clear
8:54 AM 60.4 °F 45.0 °F 57% 30.14 in 10.0 mi ENE 5.8 mph - N/A   Scattered Clouds
9:14 AM 61.9 °F 44.2 °F 52% 30.14 in 10.0 mi East 5.8 mph - N/A   Scattered Clouds
9:33 AM 63.5 °F 44.4 °F 50% 30.14 in 10.0 mi East 5.8 mph - N/A   Mostly Cloudy
9:54 AM 65.5 °F 44.6 °F 47% 30.13 in 10.0 mi ESE 5.8 mph - N/A   Mostly Cloudy
10:14 AM 67.6 °F 43.9 °F 42% 30.12 in 10.0 mi East 4.6 mph - N/A   Clear
10:34 AM 69.3 °F 41.7 °F 37% 30.12 in 10.0 mi East 5.8 mph - N/A   Clear
10:54 AM 70.7 °F 40.6 °F 34% 30.12 in 10.0 mi East 4.6 mph - N/A   Clear
11:14 AM 72.3 °F 40.1 °F 31% 30.12 in 10.0 mi ESE 5.8 mph - N/A   Mostly Cloudy
11:34 AM 74.1 °F 38.7 °F 28% 30.12 in 10.0 mi ESE 6.9 mph - N/A   Scattered Clouds
11:54 AM 73.6 °F 40.3 °F 30% 30.11 in 10.0 mi East 3.5 mph - N/A   Mostly Cloudy
12:13 PM 74.5 °F 40.8 °F 30% 30.11 in 10.0 mi ESE 11.5 mph - N/A   Mostly Cloudy
12:34 PM 74.7 °F 40.6 °F 29% 30.11 in 10.0 mi East 8.1 mph - N/A   Mostly Cloudy
12:54 PM 77.0 °F 42.6 °F 29% 30.10 in 10.0 mi East 9.2 mph - N/A   Scattered Clouds
1:13 PM 76.8 °F 43.2 °F 30% 30.09 in 10.0 mi SE 5.8 mph - N/A   Clear
1:34 PM 77.9 °F 44.1 °F 30% 30.08 in 10.0 mi East 6.9 mph 17.3 mph N/A   Clear
1:54 PM 79.3 °F 45.5 °F 30% 30.08 in 10.0 mi ESE 10.4 mph - N/A   Clear
2:13 PM 79.9 °F 46.8 °F 31% 30.07 in 10.0 mi SE 10.4 mph - N/A   Clear
2:34 PM 79.9 °F 48.2 °F 33% 30.06 in 10.0 mi South 5.8 mph 16.1 mph N/A   Clear
3:14 PM 80.1 °F 49.3 °F 34% 30.06 in 10.0 mi ESE 8.1 mph - N/A   Clear
3:34 PM 81.0 °F 49.3 °F 33% 30.05 in 10.0 mi SE 13.8 mph - N/A   Clear
3:54 PM 81.3 °F 49.5 °F 33% 30.05 in 10.0 mi SSE 10.4 mph - N/A   Clear
4:14 PM 80.8 °F 49.8 °F 34% 30.04 in 10.0 mi ESE 11.5 mph 17.3 mph N/A   Clear
4:34 PM 81.5 °F 50.4 °F 34% 30.04 in 10.0 mi SE 5.8 mph 17.3 mph N/A   Clear
4:54 PM 81.3 °F 50.2 °F 34% 30.04 in 10.0 mi SE 10.4 mph 17.3 mph N/A   Scattered Clouds
5:14 PM 81.7 °F 50.2 °F 33% 30.03 in 10.0 mi SSE 9.2 mph 20.7 mph N/A   Scattered Clouds
5:34 PM 80.8 °F 50.0 °F 34% 30.03 in 10.0 mi SSE 12.7 mph 18.4 mph N/A   Clear
6:14 PM 81.0 °F 50.0 °F 34% 30.03 in 10.0 mi SSE 10.4 mph - N/A   Clear
6:34 PM 80.4 °F 50.9 °F 36% 30.03 in 10.0 mi SSE 10.4 mph - N/A   Clear
6:54 PM 79.9 °F 50.7 °F 36% 30.03 in 10.0 mi SE 10.4 mph - N/A   Clear
7:14 PM 79.2 °F 50.9 °F 37% 30.03 in 10.0 mi South 8.1 mph - N/A   Clear
7:34 PM 78.8 °F 51.3 °F 38% 30.03 in 10.0 mi SSE 8.1 mph - N/A   Clear
7:54 PM 77.4 °F 50.4 °F 39% 30.03 in 10.0 mi SE 10.4 mph - N/A   Clear
8:14 PM 75.6 °F 49.5 °F 40% 30.03 in 10.0 mi SE 9.2 mph - N/A   Clear
8:34 PM 73.8 °F 47.8 °F 40% 30.04 in 10.0 mi SE 8.1 mph - N/A   Clear
8:54 PM 72.1 °F 46.4 °F 40% 30.04 in 10.0 mi SSE 8.1 mph - N/A   Clear
9:14 PM 70.2 °F 44.6 °F 40% 30.04 in 10.0 mi SSE 9.2 mph - N/A   Clear
9:34 PM 69.1 °F 41.9 °F 37% 30.04 in 10.0 mi SSE 5.8 mph - N/A   Clear
9:54 PM 67.5 °F 41.2 °F 38% 30.05 in 10.0 mi SSE 6.9 mph - N/A   Clear
10:14 PM 66.6 °F 41.9 °F 41% 30.05 in 10.0 mi SSE 6.9 mph - N/A   Clear
10:34 PM 66.2 °F 42.8 °F 43% 30.05 in 10.0 mi SE 9.2 mph - N/A   Clear
10:54 PM 65.3 °F 43.2 °F 45% 30.05 in 10.0 mi SE 8.1 mph - N/A   Clear
11:14 PM 64.4 °F 43.3 °F 46% 30.05 in 10.0 mi SE 6.9 mph - N/A   Clear
11:34 PM 63.7 °F 43.0 °F 47% 30.05 in 10.0 mi SSE 5.8 mph - N/A   Clear
11:54 PM 62.8 °F 42.8 °F 48% 30.06 in 10.0 mi SSE 5.8 mph - N/A   Clear